KB7STN Weather Reports


time (UTC)temp
F
wind
direction
speed
knots
gust
knots
rain 1hr
in
rain 24hr
in
rain mn
in
humidity
%
barometer
mb
20260509122708 54 324 0.9 5.2 0.00 0.00 0.00 39 1007.1
20260509122208 54 324 0.9 4.3 0.00 0.00 0.00 38 1007.0
20260509121708 54 324 0.9 4.3 0.00 0.00 0.00 38 1007.0
20260509121208 54 325 0.9 2.6 0.00 0.00 0.00 38 1006.9
20260509120708 54 324 0.9 3.5 0.00 0.00 0.00 38 1006.7
20260509120208 54 325 0.9 2.6 0.00 0.00 0.00 38 1006.7
20260509115708 54 324 0.9 3.5 0.00 0.00 0.00 36 1006.5
20260509115208 54 325 0.9 3.5 0.00 0.00 0.00 36 1006.6
20260509114708 54 325 1.7 5.2 0.00 0.00 0.00 37 1006.7
20260509114208 54 325 0.9 5.2 0.00 0.00 0.00 36 1006.7
20260509113708 55 325 0.9 3.5 0.00 0.00 0.00 36 1006.6
20260509113208 55 325 0.9 2.6 0.00 0.00 0.00 36 1006.5
20260509112708 55 325 0.9 3.5 0.00 0.00 0.00 36 1006.5
20260509112208 55 325 0.9 2.6 0.00 0.00 0.00 35 1006.5
20260509111708 56 325 1.7 2.6 0.00 0.00 0.00 34 1006.4
20260509111208 56 325 1.7 4.3 0.00 0.00 0.00 33 1006.3
20260509110708 56 321 0.9 6.1 0.00 0.00 0.00 35 1006.3
20260509110208 56 321 0.9 6.1 0.00 0.00 0.00 35 1006.3
20260509105708 56 321 0.9 3.5 0.00 0.00 0.00 37 1006.3
20260509105208 56 321 1.7 2.6 0.00 0.00 0.00 36 1006.4
20260509104708 56 321 1.7 4.3 0.00 0.00 0.00 36 1006.3
20260509104208 56 321 2.6 5.2 0.00 0.00 0.00 36 1006.3
20260509103708 56 321 1.7 5.2 0.00 0.00 0.00 35 1006.2
20260509103208 56 323 1.7 6.1 0.00 0.00 0.00 35 1006.2
20260509102708 56 323 0.9 3.5 0.00 0.00 0.00 35 1006.2
20260509102208 56 323 0.0 2.6 0.00 0.00 0.00 35 1006.2
20260509101708 56 323 0.0 2.6 0.00 0.00 0.00 35 1006.1
20260509101208 56 323 0.9 1.7 0.00 0.00 0.00 35 1006.1
20260509100708 56 323 0.9 2.6 0.00 0.00 0.00 34 1006.0
20260509100208 57 323 0.9 2.6 0.00 0.00 0.00 34 1006.0
20260509095708 57 323 1.7 2.6 0.00 0.00 0.00 34 1005.9
20260509095208 57 323 0.9 4.3 0.00 0.00 0.00 34 1005.9
20260509094708 57 323 0.9 4.3 0.00 0.00 0.00 34 1005.9
20260509094208 58 323 1.7 1.7 0.00 0.00 0.00 34 1005.9
20260509093708 58 323 1.7 4.3 0.00 0.00 0.00 33 1005.9
20260509093208 58 323 0.9 4.3 0.00 0.00 0.00 34 1005.8
20260509092708 58 323 0.9 2.6 0.00 0.00 0.00 33 1005.9
20260509092208 58 323 0.9 5.2 0.00 0.00 0.00 32 1005.8
20260509091708 58 323 0.9 3.5 0.00 0.00 0.00 32 1005.7
20260509091208 58 322 0.9 4.3 0.00 0.00 0.00 32 1005.5
20260509090708 59 324 0.9 4.3 0.00 0.00 0.00 32 1005.6
20260509090208 59 333 0.0 2.6 0.00 0.00 0.00 32 1005.5
20260509085708 59 333 0.9 2.6 0.00 0.00 0.00 31 1005.5
20260509085208 59 333 0.9 4.3 0.00 0.00 0.00 31 1005.4
20260509084708 60 334 0.9 2.6 0.00 0.00 0.00 32 1005.4
20260509084208 60 339 0.9 5.2 0.00 0.00 0.00 31 1005.3
20260509083708 60 344 0.0 0.9 0.00 0.00 0.00 31 1005.3
20260509083208 60 344 0.9 3.5 0.00 0.00 0.00 30 1005.1
20260509082708 60 344 0.9 5.2 0.00 0.00 0.00 31 1005.1
20260509082208 60 326 0.0 4.3 0.00 0.00 0.00 30 1005.1
20260509081708 61 327 0.0 0.0 0.00 0.00 0.00 30 1005.0
20260509081208 61 327 0.9 0.0 0.00 0.00 0.00 30 1005.0
20260509080708 61 327 0.9 3.5 0.00 0.00 0.00 29 1005.0
20260509080208 61 327 0.9 5.2 0.00 0.00 0.00 30 1005.0
20260509075708 61 327 0.0 0.0 0.00 0.00 0.00 30 1005.0
20260509075208 61 327 0.0 1.7 0.00 0.00 0.00 31 1004.9
20260509074708 61 327 0.0 3.5 0.00 0.00 0.00 31 1004.9
20260509074208 61 327 0.0 2.6 0.00 0.00 0.00 32 1004.9
20260509073708 61 327 0.9 4.3 0.00 0.00 0.00 33 1004.9
20260509073208 60 327 0.9 4.3 0.00 0.00 0.00 34 1004.8
20260509072708 60 327 0.0 2.6 0.00 0.00 0.00 35 1004.9
20260509072208 60 328 0.0 4.3 0.00 0.00 0.00 35 1004.7
20260509071708 59 328 0.0 6.1 0.00 0.00 0.00 35 1004.6
20260509071208 59 329 0.0 0.9 0.00 0.00 0.00 35 1004.7
20260509070708 59 329 0.0 0.0 0.00 0.00 0.00 34 1004.5
20260509070209 60 329 0.0 0.0 0.00 0.00 0.00 35 1004.3
20260509065708 61 329 0.0 0.0 0.00 0.00 0.00 32 1004.2
20260509065208 61 329 0.0 0.0 0.00 0.00 0.00 31 1004.0
20260509064709 62 329 0.0 0.0 0.00 0.00 0.00 31 1003.9
20260509064209 62 329 0.0 0.0 0.00 0.00 0.00 29 1003.9
20260509063708 62 329 0.0 0.0 0.00 0.00 0.00 29 1003.8
20260509063209 62 329 0.0 0.0 0.00 0.00 0.00 29 1003.8
20260509062709 62 329 0.0 0.0 0.00 0.00 0.00 30 1003.8
20260509062208 62 329 0.0 0.0 0.00 0.00 0.00 30 1003.9
20260509061709 62 329 0.0 0.0 0.00 0.00 0.00 30 1004.0
20260509061209 62 329 0.0 5.2 0.00 0.00 0.00 31 1004.1
20260509060709 61 329 0.0 0.0 0.00 0.00 0.00 30 1004.0
20260509060209 61 329 0.0 0.0 0.00 0.00 0.00 30 1004.0
20260509055709 61 329 0.0 3.5 0.00 0.00 0.00 30 1004.0
20260509055209 61 329 0.0 3.5 0.00 0.00 0.00 31 1004.1
20260509054709 61 329 0.0 3.5 0.00 0.00 0.00 30 1004.1
20260509054209 61 329 0.0 0.0 0.00 0.00 0.00 30 1004.0
20260509053709 61 329 0.0 0.0 0.00 0.00 0.00 29 1003.7
20260509053209 61 329 0.0 0.0 0.00 0.00 0.00 29 1003.7
20260509052709 61 329 0.0 0.0 0.00 0.00 0.00 30 1003.6
20260509052209 62 329 0.0 0.0 0.00 0.00 0.00 29 1003.6
20260509051709 62 329 0.0 0.0 0.00 0.00 0.00 28 1003.6
20260509051209 62 329 0.0 0.0 0.00 0.00 0.00 28 1003.6
20260509050709 62 329 0.0 0.0 0.00 0.00 0.00 28 1003.6
20260509050209 63 329 0.0 0.0 0.00 0.00 0.00 28 1003.6
20260509045709 63 329 0.0 0.0 0.00 0.00 0.00 28 1003.6
20260509045209 63 329 0.0 0.0 0.00 0.00 0.00 29 1003.6
20260509044709 64 329 0.0 0.0 0.00 0.00 0.00 28 1003.6
20260509044209 64 329 0.0 0.0 0.00 0.00 0.00 27 1003.5
20260509043709 64 329 0.0 0.0 0.00 0.00 0.00 28 1003.5
20260509043209 64 329 0.0 0.0 0.00 0.00 0.00 28 1003.4
20260509042709 64 329 0.0 0.0 0.00 0.00 0.00 28 1003.5
20260509042209 63 329 0.0 0.0 0.00 0.00 0.00 29 1003.4
20260509041709 63 329 0.0 0.0 0.00 0.00 0.00 29 1003.4
20260509041209 63 329 0.0 0.0 0.00 0.00 0.00 29 1003.3
20260509040709 63 329 0.0 0.0 0.00 0.00 0.00 29 1003.3
20260509040209 63 329 0.0 0.0 0.00 0.00 0.00 30 1003.4
20260509035709 63 329 0.0 0.0 0.00 0.00 0.00 30 1003.4
20260509035209 63 329 0.0 0.0 0.00 0.00 0.00 30 1003.4
20260509034709 63 329 0.0 0.0 0.00 0.00 0.00 30 1003.3
20260509034209 63 329 0.0 0.0 0.00 0.00 0.00 30 1003.2
20260509033709 64 329 0.0 0.0 0.00 0.00 0.00 30 1003.3
20260509033209 64 329 0.0 0.0 0.00 0.00 0.00 30 1003.2
20260509032709 64 329 0.0 0.0 0.00 0.00 0.00 30 1003.0
20260509032209 65 329 0.0 0.0 0.00 0.00 0.00 29 1003.0
20260509031709 65 329 0.0 0.0 0.00 0.00 0.00 29 1002.9
20260509031209 65 329 0.0 0.0 0.00 0.00 0.00 29 1002.9
20260509030709 65 329 0.0 0.0 0.00 0.00 0.00 29 1003.0
20260509030209 65 329 0.0 0.0 0.00 0.00 0.00 28 1003.0
20260509025709 65 329 0.0 0.0 0.00 0.00 0.00 29 1003.0
20260509025209 66 329 0.0 0.0 0.00 0.00 0.00 28 1002.9
20260509024709 66 329 0.0 0.0 0.00 0.00 0.00 27 1003.0
20260509024209 67 329 0.0 0.0 0.00 0.00 0.00 26 1002.9
20260509023709 68 329 0.0 0.0 0.00 0.00 0.00 28 1002.9
20260509023209 68 329 0.0 0.0 0.00 0.00 0.00 24 1002.9
20260509022709 69 329 0.0 0.0 0.00 0.00 0.00 25 1002.7
20260509022209 70 329 0.0 0.0 0.00 0.00 0.00 23 1002.8
20260509021709 70 329 0.0 0.0 0.00 0.00 0.00 22 1002.7
20260509021209 71 329 0.0 0.0 0.00 0.00 0.00 21 1002.7
20260509020709 71 329 0.0 0.0 0.00 0.00 0.00 21 1002.7
20260509020209 71 329 0.0 0.0 0.00 0.00 0.00 20 1002.7
20260509015709 72 329 0.0 2.6 0.00 0.00 0.00 20 1002.7
20260509015209 73 329 0.0 0.0 0.00 0.00 0.00 19 1002.7
20260509014709 73 329 0.0 0.0 0.00 0.00 0.00 20 1002.7
20260509014209 74 329 0.9 1.7 0.00 0.00 0.00 20 1002.7
20260509013709 74 329 0.9 4.3 0.00 0.00 0.00 19 1002.7
20260509013209 74 329 1.7 3.5 0.00 0.00 0.00 20 1002.7
20260509012709 74 329 0.9 4.3 0.00 0.00 0.00 19 1002.7
20260509012209 74 329 0.9 3.5 0.00 0.00 0.00 20 1002.9
20260509011709 74 329 1.7 4.3 0.00 0.00 0.00 19 1002.9
20260509011209 75 327 1.7 7.0 0.00 0.00 0.00 19 1002.9
20260509010709 75 330 1.7 4.3 0.00 0.00 0.00 19 1003.0
20260509010209 75 330 1.7 7.0 0.00 0.00 0.00 19 1003.0
20260509005709 75 11 0.9 4.3 0.00 0.00 0.00 20 1003.1
20260509005209 75 11 1.7 3.5 0.00 0.00 0.00 19 1003.1
20260509004709 75 11 0.9 5.2 0.00 0.00 0.00 19 1003.1
20260509004209 75 36 0.9 3.5 0.00 0.00 0.00 20 1003.2
20260509003709 75 36 1.7 5.2 0.00 0.00 0.00 19 1003.2
20260509003209 75 37 1.7 5.2 0.00 0.00 0.00 19 1003.2
20260509002709 75 38 0.9 3.5 0.00 0.00 0.00 20 1003.3
20260509002209 75 38 0.9 3.5 0.00 0.00 0.00 20 1003.2
20260509001709 75 37 0.9 1.7 0.00 0.00 0.00 21 1003.3
20260509001209 75 37 1.7 4.3 0.00 0.00 0.00 21 1003.3
20260509000709 75 32 1.7 6.1 0.00 0.00 0.00 21 1003.3
20260509000211 75 56 2.6 7.8 0.00 0.00 0.00 21 1003.4
20260508235709 75 45 2.6 6.1 0.00 0.00 0.00 20 1003.3
20260508235209 75 36 1.7 4.3 0.00 0.00 0.00 21 1003.3
20260508234709 75 34 0.9 5.2 0.00 0.00 0.00 21 1003.4
20260508234209 75 34 1.7 5.2 0.00 0.00 0.00 21 1003.4
20260508233709 75 34 2.6 4.3 0.00 0.00 0.00 21 1003.4
20260508233209 75 89 2.6 7.8 0.00 0.00 0.00 21 1003.3
20260508232709 75 19 2.6 6.1 0.00 0.00 0.00 21 1003.3
20260508232209 75 48 2.6 7.0 0.00 0.00 0.00 21 1003.4
20260508231709 75 44 2.6 5.2 0.00 0.00 0.00 20 1003.4
20260508231209 75 166 2.6 6.1 0.00 0.00 0.00 22 1003.4
20260508230709 75 74 2.6 7.8 0.00 0.00 0.00 21 1003.4
20260508230209 75 0 2.6 7.0 0.00 0.00 0.00 21 1003.5
20260508225711 75 57 2.6 7.0 0.00 0.00 0.00 21 1003.6
20260508225209 75 46 2.6 5.2 0.00 0.00 0.00 21 1003.7
20260508224709 75 23 2.6 7.8 0.00 0.00 0.00 21 1003.7
20260508224209 75 54 2.6 7.0 0.00 0.00 0.00 21 1003.7
20260508223709 75 80 3.5 6.1 0.00 0.00 0.00 21 1003.9
20260508223209 75 44 3.5 8.7 0.00 0.00 0.00 21 1003.9
20260508222709 75 28 2.6 7.0 0.00 0.00 0.00 21 1003.9
20260508222209 75 68 2.6 7.8 0.00 0.00 0.00 21 1003.9
20260508221709 75 61 2.6 7.8 0.00 0.00 0.00 22 1004.0
20260508221209 75 59 2.6 7.0 0.00 0.00 0.00 22 1004.1
20260508220709 75 50 2.6 8.7 0.00 0.00 0.00 22 1004.2
20260508220209 74 231 1.7 5.2 0.00 0.00 0.00 22 1004.2
20260508215709 74 204 2.6 6.1 0.00 0.00 0.00 24 1004.2
20260508215209 74 43 2.6 8.7 0.00 0.00 0.00 22 1004.5
20260508214709 74 48 2.6 7.0 0.00 0.00 0.00 22 1004.5
20260508214209 74 39 2.6 7.0 0.00 0.00 0.00 23 1004.4
20260508213709 74 61 2.6 7.0 0.00 0.00 0.00 22 1004.6
20260508213209 73 52 2.6 4.3 0.00 0.00 0.00 22 1004.7
20260508212709 73 22 3.5 8.7 0.00 0.00 0.00 23 1004.7
20260508212209 73 56 2.6 7.8 0.00 0.00 0.00 23 1004.8
20260508211709 73 107 2.6 7.0 0.00 0.00 0.00 22 1004.7
20260508211209 73 169 2.6 7.8 0.00 0.00 0.00 23 1004.8
20260508210709 73 52 3.5 7.8 0.00 0.00 0.00 23 1004.9
20260508210209 73 24 4.3 9.6 0.00 0.00 0.00 23 1004.9
20260508205709 73 60 3.5 9.6 0.00 0.00 0.00 22 1005.0
20260508205209 73 19 2.6 8.7 0.00 0.00 0.00 24 1005.1
20260508204709 73 186 3.5 8.7 0.00 0.00 0.00 24 1005.1
20260508204209 73 100 3.5 9.6 0.00 0.00 0.00 24 1005.1
20260508203709 73 78 3.5 7.8 0.00 0.00 0.00 23 1005.2
20260508203209 73 63 3.5 10.4 0.00 0.00 0.00 23 1005.2
20260508202709 74 59 3.5 7.8 0.00 0.00 0.00 22 1005.2
20260508202210 74 11 2.6 7.0 0.00 0.00 0.00 22 1005.3
20260508201709 74 34 2.6 4.3 0.00 0.00 0.00 23 1005.3
20260508201210 74 66 2.6 6.1 0.00 0.00 0.00 23 1005.4
20260508200709 74 118 2.6 5.2 0.00 0.00 0.00 24 1005.5
20260508200210 74 121 1.7 7.8 0.00 0.00 0.00 23 1005.5
20260508195710 74 42 1.7 6.1 0.00 0.00 0.00 23 1005.5
20260508195210 75 318 1.7 4.3 0.00 0.00 0.00 23 1005.5
20260508194710 75 315 1.7 4.3 0.00 0.00 0.00 21 1005.5
20260508194210 74 315 1.7 6.1 0.00 0.00 0.00 25 1005.6
20260508193710 74 315 0.9 5.2 0.00 0.00 0.00 23 1005.5
20260508193210 74 314 1.7 6.1 0.00 0.00 0.00 23 1005.6
20260508192710 74 313 1.7 5.2 0.00 0.00 0.00 25 1005.7
20260508192210 74 313 1.7 4.3 0.00 0.00 0.00 22 1005.6
20260508191710 74 314 2.6 7.8 0.00 0.00 0.00 23 1005.6
20260508191210 74 311 1.7 7.0 0.00 0.00 0.00 23 1005.6
20260508190710 74 306 0.9 5.2 0.00 0.00 0.00 24 1005.6
20260508190210 73 307 0.9 7.0 0.00 0.00 0.00 23 1005.9
20260508185710 73 312 0.9 7.8 0.00 0.00 0.00 24 1005.9
20260508185210 73 311 1.7 4.3 0.00 0.00 0.00 27 1005.9
20260508184710 72 311 1.7 6.1 0.00 0.00 0.00 24 1006.0
20260508184210 73 284 2.6 7.8 0.00 0.00 0.00 24 1006.1
20260508183710 73 285 1.7 7.8 0.00 0.00 0.00 23 1006.1
20260508183210 73 315 2.6 4.3 0.00 0.00 0.00 25 1006.1
20260508182710 72 332 2.6 8.7 0.00 0.00 0.00 25 1006.2
20260508182210 72 327 1.7 7.0 0.00 0.00 0.00 26 1006.2
20260508181710 71 5 1.7 5.2 0.00 0.00 0.00 24 1006.3
20260508181210 71 24 1.7 6.1 0.00 0.00 0.00 25 1006.4
20260508180710 71 36 0.9 7.8 0.00 0.00 0.00 25 1006.4
20260508180210 70 355 0.9 5.2 0.00 0.00 0.00 27 1006.3
20260508175710 70 18 1.7 6.1 0.00 0.00 0.00 26 1006.5
20260508175210 71 328 1.7 9.6 0.00 0.00 0.00 24 1006.6
20260508174710 71 325 0.9 4.3 0.00 0.00 0.00 27 1006.6
20260508174210 70 15 0.9 3.5 0.00 0.00 0.00 26 1006.6
20260508173710 70 11 1.7 7.8 0.00 0.00 0.00 26 1006.7
20260508173210 69 67 0.9 7.8 0.00 0.00 0.00 27 1006.7
20260508172710 69 34 0.0 3.5 0.00 0.00 0.00 29 1006.7
20260508172210 69 57 0.0 1.7 0.00 0.00 0.00 31 1006.8
20260508171710 69 57 0.0 6.1 0.00 0.00 0.00 32 1006.8
20260508171210 69 70 0.0 2.6 0.00 0.00 0.00 30 1006.8
20260508170710 69 70 0.0 2.6 0.00 0.00 0.00 32 1006.8
20260508170210 69 71 0.0 2.6 0.00 0.00 0.00 32 1006.6
20260508165710 69 71 0.0 3.5 0.00 0.00 0.00 31 1006.6
20260508165210 69 71 0.0 3.5 0.00 0.00 0.00 32 1006.6
20260508164710 69 71 0.0 0.9 0.00 0.00 0.00 33 1006.5
20260508164210 69 71 0.0 1.7 0.00 0.00 0.00 33 1006.5
20260508163710 68 70 0.0 1.7 0.00 0.00 0.00 34 1006.5
20260508163210 68 70 0.0 1.7 0.00 0.00 0.00 33 1006.5
20260508162710 68 70 0.0 1.7 0.00 0.00 0.00 34 1006.5
20260508162210 68 70 0.0 2.6 0.00 0.00 0.00 34 1006.5
20260508161710 67 69 0.0 0.9 0.00 0.00 0.00 35 1006.4
20260508161210 67 69 0.0 2.6 0.00 0.00 0.00 32 1006.5
20260508160710 67 69 0.0 1.7 0.00 0.00 0.00 36 1006.4
20260508160210 67 69 0.0 0.0 0.00 0.00 0.00 34 1006.4
20260508155710 67 69 0.0 0.0 0.00 0.00 0.00 35 1006.4
20260508155210 67 69 0.0 0.0 0.00 0.00 0.00 34 1006.3
20260508154710 67 69 0.0 0.9 0.00 0.00 0.00 36 1006.4
20260508154210 67 69 0.0 0.9 0.00 0.00 0.00 36 1006.4
20260508153710 67 69 0.0 0.0 0.00 0.00 0.00 36 1006.4
20260508153210 67 69 0.0 0.0 0.00 0.00 0.00 37 1006.4
20260508152710 67 69 0.0 0.0 0.00 0.00 0.00 38 1006.4
20260508152210 67 69 0.0 0.0 0.00 0.00 0.00 34 1006.3
20260508151710 67 69 0.0 0.0 0.00 0.00 0.00 37 1006.3
20260508151210 67 69 0.0 0.0 0.00 0.00 0.00 37 1006.3
20260508150710 67 69 0.0 0.0 0.00 0.00 0.00 37 1006.3
20260508150210 67 69 0.0 0.0 0.00 0.00 0.00 37 1006.2
20260508145710 67 69 0.0 0.0 0.00 0.00 0.00 39 1006.3
20260508145210 67 69 0.0 0.0 0.00 0.00 0.00 37 1006.3
20260508144710 67 69 0.0 0.0 0.00 0.00 0.00 37 1006.3
20260508144210 67 69 0.0 0.0 0.00 0.00 0.00 38 1006.3
20260508143710 66 69 0.0 0.0 0.00 0.00 0.00 36 1006.3
20260508143210 66 69 0.0 0.0 0.00 0.00 0.00 34 1006.2
20260508142710 65 69 0.0 0.0 0.00 0.00 0.00 36 1006.2
20260508142210 65 69 0.0 0.0 0.00 0.00 0.00 35 1006.2
20260508141710 65 69 0.0 0.0 0.00 0.00 0.00 36 1006.2
20260508141210 64 69 0.0 0.0 0.00 0.00 0.00 38 1006.2
20260508140710 63 69 0.0 0.0 0.00 0.00 0.00 41 1006.2
20260508140210 61 69 0.0 0.0 0.00 0.00 0.00 42 1006.2
20260508135710 60 69 0.0 0.0 0.00 0.00 0.00 45 1006.2
20260508135210 59 69 0.0 0.0 0.00 0.00 0.00 46 1006.3
20260508134710 58 69 0.0 0.0 0.00 0.00 0.00 52 1006.2
20260508134210 57 69 0.0 0.0 0.00 0.00 0.00 51 1006.1
20260508133712 57 69 0.0 0.0 0.00 0.00 0.00 51 1006.1
20260508133210 56 69 0.0 0.0 0.00 0.00 0.00 49 1006.1
20260508132710 55 69 0.0 0.0 0.00 0.00 0.00 49 1006.0
20260508132210 55 69 0.0 0.0 0.00 0.00 0.00 50 1006.1
20260508131710 54 69 0.0 0.0 0.00 0.00 0.00 50 1006.0
20260508131210 54 69 0.0 0.0 0.00 0.00 0.00 52 1006.1
20260508130710 54 69 0.0 0.0 0.00 0.00 0.00 52 1006.0
20260508130210 54 69 0.0 0.0 0.00 0.00 0.00 52 1005.9
20260508125710 54 69 0.0 0.0 0.00 0.00 0.00 52 1005.9
20260508125210 53 69 0.0 0.0 0.00 0.00 0.00 52 1005.8
20260508124710 53 69 0.0 0.0 0.00 0.00 0.00 52 1005.7
20260508124210 53 69 0.0 0.0 0.00 0.00 0.00 51 1005.6
20260508123710 53 69 0.0 0.0 0.00 0.00 0.00 51 1005.6
20260508123210 53 69 0.0 0.0 0.00 0.00 0.00 51 1005.5